Location: Orange Harbor Mobile Home Park
(26.6923°N, 81.7937°W)
Time: 06:34:04
(UTC+00:00)

Tiangong - Pass Details

Date: 29 June 2021
Orbit: 374 x 386 km, 41.5° (Epoch: 27 July)

Event Time Altitude Azimuth Distance (km) Brightness Sun altitude
Rises 09:25:58 0° 316° (NW) 2,234 4.9 -14.4°
Reaches altitude 10° 09:28:18 10° 332° (NNW) 1,384 4.0 -14.0°
Maximum altitude 09:30:51 23° 27° (NNE) 870 3.6 -13.5°
Drops below altitude 10° 09:33:24 10° 82° (E) 1,388 4.9 -13.0°
Sets 09:35:45 0° 98° (E) 2,242 5.7 -12.6°
